Weather observations for the past three days for
Branch County Memorial Airport
Imperial (Metric)
Date Time (edt) Wind (mph) Vis. (mi.) Weather Sky Cond. Temperature (ºF) Relative Humidity Wind Chill (°F) Heat Index (°F) Pressure Precipitation (in)
Air Dwpt 6 hour altimeter (in) sea level (mb) 1 hr 3 hr 6 hr
Max. Min.
23 19:15 SW 3 10.00 Partly Cloudy SCT110 76.1 65.7 70% 78 30.02 0.0
23 18:55 SW 3 10.00 Partly Cloudy SCT110 76.5 64.6 67% 78 30.02 0.0
23 18:35 SW 6 10.00 Fair CLR 78.8 64 61% 81 30.01 0.0
23 18:15 SW 5 10.00 Fair CLR 78.1 63 60% 80 30.01 0.0
23 17:55 S 3 10.00 Fair CLR 77.9 64.4 63% 80 30.01 0.0
23 17:35 S 8 10.00 Fair CLR 76.3 66.2 71% 78 30.02 0.0
23 17:15 SW 8 10.00 Light Rain SCT029 SCT035 BKN120 74.5 68.5 82% 30.03 0.0
23 16:55 SW 13 10.00 Light Rain SCT029 SCT042 BKN110 74.7 64.8 71% 30.03 0.0
23 16:35 SW 7 10.00 Mostly Cloudy SCT049 SCT070 BKN110 79.9 65.3 61% 82 30.02 0.0
23 16:15 SW 8 10.00 Partly Cloudy SCT045 SCT110 82.9 64.8 54% 85 30.02 0.0
23 15:55 W 9 10.00 Partly Cloudy SCT041 SCT048 SCT050 84 64 51% 85 30.02 0.0
23 15:35 SW 8 10.00 Partly Cloudy SCT041 SCT049 SCT055 82.6 65.1 56% 84 30.02 0.0
23 15:15 SW 8 10.00 Mostly Cloudy SCT042 BKN048 BKN050 82.9 64.2 53% 84 30.03 0.0
23 14:55 SW 6 10.00 Partly Cloudy SCT042 SCT060 SCT065 82 65.1 57% 84 30.03 0.0
23 14:35 SW 7 10.00 Partly Cloudy SCT040 82.2 64.8 56% 84 30.04 0.0
23 14:15 SW 6 10.00 Partly Cloudy SCT037 SCT070 SCT075 81.3 63.7 55% 83 30.04 0.0
23 13:55 SW 8 10.00 Mostly Cloudy BKN037 BKN044 BKN055 81.7 65.3 83.1 64.4 58% 84 30.04 0.0
23 13:35 W 5 10.00 Mostly Cloudy SCT037 SCT043 BKN070 81.5 64.8 57% 83 30.05 0.0
23 13:15 SW 9 10.00 Partly Cloudy SCT037 SCT044 81.1 65.5 59% 83 30.05 0.0
23 12:55 W 6 10.00 Partly Cloudy SCT033 80.2 65.3 60% 82 30.06 0.0
23 12:35 SW 7 10.00 Fair CLR 79.9 64.2 59% 82 30.06 0.0
23 12:15 SW 5 10.00 Fair CLR 79.3 63.9 59% 81 30.06 0.0
23 11:55 SW 6 10.00 Fair CLR 79.5 63.3 58% 81 30.06 0.0
23 11:35 W 7 10.00 Fair CLR 79.7 62.4 56% 81 30.06 0.0
23 11:15 W 6 10.00 Fair CLR 78.6 62.6 58% 80 30.06 0.0
23 10:55 W 6 10.00 Fair CLR 79 63.9 60% 81 30.06 0.0
23 10:35 NW 6 10.00 Fair CLR 78.1 63.7 61% 80 30.06 0.0
23 10:15 Calm 10.00 Fair CLR 75.4 66.2 73% 77 30.06 0.0
23 09:55 Calm 10.00 Fair CLR 73.2 66.6 80% 30.06 0.0
23 09:35 Calm 10.00 Fair CLR 73 66.9 81% 30.06 0.0
23 09:15 Calm 10.00 Fair CLR 71.2 66.6 85% 30.05 0.0
23 08:55 Calm 7.00 Fair CLR 69.8 66 88% 30.05 0.0
23 08:35 Calm 7.00 Fair CLR 68 66 93% 30.04 0.0
23 08:15 Calm 5.00 Fog/Mist CLR 66.2 65.1 96% 30.04 0.0
23 07:55 Calm 5.00 Fog/Mist CLR 64.2 63.1 64.2 60.4 96% 30.04 0.0
23 07:35 Calm 4.00 Fog/Mist CLR 62.4 61.3 96% 30.04 0.0
23 07:15 Calm 3.00 Fog/Mist CLR 61.7 60.4 96% 30.03 0.0
23 06:55 Calm 2.50 Fog/Mist CLR 61 59.9 96% 30.02 0.0
23 06:35 Calm 3.00 Fog/Mist CLR 60.8 59.9 97% 30.02 0.0
23 06:15 Calm 2.50 Fog/Mist SCT050 60.6 59.7 97% 30.02 0.0
23 05:55 Calm 4.00 Fog/Mist SCT044 BKN050 BKN070 61.5 60.4 96% 30.02 0.0
23 05:35 Calm 4.00 Fog/Mist SCT044 60.4 59.4 96% 30.02 0.0
23 05:15 Calm 5.00 Fog/Mist SCT055 61.3 60.1 96% 30.02 0.0
23 04:55 Calm 5.00 Fog/Mist SCT055 61.7 60.8 97% 30.02 0.0
23 04:35 Calm 5.00 Fog/Mist CLR 61.5 60.4 96% 30.01 0.0
23 04:15 Calm 7.00 Fair CLR 61.7 60.8 97% 30.01 0.0
23 03:55 Calm 7.00 Fair CLR 61.7 60.6 96% 30.01 0.0
23 03:35 Calm 7.00 Fair CLR 62.6 61.5 96% 30.01 0.0
23 03:15 Calm 3.00 Fog/Mist CLR 61.2 60.1 96% 30.01 0.0
23 02:55 Calm 4.00 Fog/Mist CLR 62.2 61.2 96% 30.02 0.0
23 02:35 Calm 10.00 Fair CLR 63.5 62.4 96% 30.02 0.0
23 02:15 Calm 5.00 Fog/Mist CLR 62.2 61.2 96% 30.02 0.0
23 01:55 Calm 10.00 Fair CLR 62.8 61.7 77.4 62.6 96% 30.02 0.0
23 01:35 Calm 10.00 Fair CLR 64.2 63.1 96% 30.02 0.0
23 01:15 Calm 10.00 Fair CLR 64.9 63.1 94% 30.02 0.0
23 00:55 Calm 10.00 Fair CLR 65.1 63.5 95% 30.02 0.0
23 00:35 SE 3 10.00 Fair CLR 64.8 62.6 93% 30.03 0.0
23 00:15 E 3 10.00 Fair CLR 65.1 63.1 93% 30.02 0.0
22 23:55 Calm 10.00 Fair CLR 66.4 63.3 90% 30.02 0.0
22 23:35 Calm 10.00 Fair CLR 66.9 63.7 89% 30.02 0.0
22 23:15 Calm 10.00 Fair CLR 68.4 63.1 84% 30.02 0.0
22 22:55 Calm 10.00 Fair CLR 67.6 63.1 86% 30.02 0.0
22 22:35 E 3 10.00 Fair CLR 68.2 63.5 85% 30.02 0.0
22 22:15 Calm 10.00 Fair CLR 68.9 63.5 83% 30.02 0.0
22 21:55 Calm 10.00 Fair CLR 69.1 63.7 83% 30.01 0.0
22 21:35 E 5 10.00 Fair CLR 70.2 63.7 80% 30.01 0.0
22 21:15 E 3 10.00 Fair CLR 71.1 64.4 80% 30 0.0
22 20:55 E 3 10.00 Fair CLR 72.3 64 75% 29.99 0.0
22 20:35 E 5 10.00 Fair CLR 73.8 64.2 72% 29.99 0.0
22 20:15 E 6 10.00 Fair CLR 75.2 64 68% 77 29.99 0.0
22 19:55 N 5 10.00 Fair CLR 77.4 63.9 82.2 75.6 63% 79 29.99 0.0
22 19:35 N 5 10.00 Fair CLR 78.3 64 62% 80 29.99 0.0
22 19:15 N 6 10.00 Fair CLR 80.4 60.6 51% 81 29.99 0.0
22 18:55 N 5 10.00 Fair CLR 80.2 60.6 51% 81 29.99 0.0
22 18:35 NW 3 10.00 Fair CLR 81 60.3 49% 82 29.99 0.0
22 18:15 Calm 10.00 Fair CLR 81.3 61.2 50% 82 29.99 0.0
22 17:55 Calm 10.00 Fair CLR 80.4 60.4 51% 81 29.99 0.0
22 17:35 N 6 10.00 Partly Cloudy SCT044 80.6 62.6 54% 82 29.99 0.0
22 17:15 N 5 10.00 Mostly Cloudy BKN044 81.9 62.1 51% 83 30 0.0
22 16:55 Calm 10.00 Fair CLR 81.3 59.5 48% 82 30.01 0.0
22 16:35 NW 5 10.00 Fair CLR 81.7 60.1 48% 82 30.01 0.0
22 16:15 N 5 10.00 Fair CLR 79.2 61.7 55% 80 30.01 0.0
22 15:55 N 3 10.00 Fair CLR 79.3 62.1 56% 81 30.02 0.0
22 15:35 E 3 10.00 Fair CLR 80.2 62.2 54% 81 30.02 0.0
22 15:15 Calm 10.00 Fair CLR 80.1 62.6 55% 81 30.03 0.0
22 14:55 Calm 10.00 Fair CLR 78.3 63.5 61% 80 30.03 0.0
22 14:35 Calm 10.00 Fair CLR 79.2 64 60% 81 30.03 0.0
22 14:15 Calm 10.00 Fair CLR 76.5 65.8 70% 78 30.04 0.0
22 13:55 Calm 10.00 Fair CLR 75.7 66 76.3 67.3 72% 77 30.04 0.0
22 13:35 Calm 10.00 Fair CLR 74.8 66.9 76% 30.04 0.0
22 13:15 Calm 10.00 Fair CLR 75.4 66 73% 77 30.05 0.0
22 12:55 Calm 10.00 Fair CLR 76.1 66.4 72% 78 30.05 0.0
22 12:35 Calm 10.00 Fair CLR 75.2 66.6 75% 76 30.06 0.0
22 12:15 Calm 10.00 Fair CLR 74.3 66.2 76% 30.06 0.0
22 11:55 Calm 10.00 Fair CLR 73.9 65.8 76% 30.06 0.0
22 11:35 Calm 10.00 Fair CLR 72.9 65.5 78% 30.07 0.0
22 11:15 Calm 10.00 Fair CLR 73.4 64.6 74% 30.07 0.0
22 10:55 Calm 10.00 Fair CLR 72.7 65.7 79% 30.07 0.0
22 10:35 Calm 10.00 Partly Cloudy SCT039 72.7 64.6 76% 30.06 0.0
22 10:15 Calm 10.00 Fair CLR 72.1 64.9 78% 30.07 0.0
22 09:35 Calm 10.00 Fair CLR 71.6 62.8 74% 30.06 0.0
22 09:15 Calm 10.00 Partly Cloudy SCT055 71.6 64.6 79% 30.06 0.0
22 08:55 Calm 10.00 Overcast OVC055 70.5 64 80% 30.06 0.0
22 08:35 Calm 10.00 Partly Cloudy SCT055 69.6 64 83% 30.06 0.0
22 08:15 Calm 10.00 Partly Cloudy SCT049 SCT095 68 64.8 89% 30.05 0.0
22 07:55 Calm 10.00 Mostly Cloudy BKN049 BKN095 67.1 65.7 67.5 62.8 95% 30.05 0.0
22 07:35 Calm 10.00 Mostly Cloudy BKN049 66 64.9 96% 30.05 0.0
22 07:15 Calm 7.00 Fair CLR 64.4 63.3 96% 30.05 0.0
22 06:55 Calm 3.00 Fog/Mist SCT050 63.9 62.8 96% 30.05 0.0
22 06:35 Calm 7.00 Mostly Cloudy BKN050 64.6 63.5 96% 30.05 0.0
22 06:15 Calm 7.00 Overcast OVC050 64.4 63.3 96% 30.05 0.0
22 05:55 Calm 7.00 Overcast OVC050 64.6 63.5 96% 30.05 0.0
22 05:35 Calm 4.00 Fog/Mist BKN050 63.1 61.9 96% 30.05 0.0
22 05:15 Calm 5.00 Fog/Mist SCT055 63.7 62.6 96% 30.04 0.0
22 04:55 Calm 7.00 Partly Cloudy SCT055 63.5 62.2 96% 30.05 0.0
22 04:35 Calm 7.00 Fair CLR 62.8 61.7 96% 30.05 0.0
22 04:15 Calm 7.00 Fair CLR 64 63 96% 30.06 0.0
22 03:55 Calm 7.00 Partly Cloudy SCT060 64.6 63.5 96% 30.06 0.0
22 03:35 Calm 10.00 Mostly Cloudy BKN060 64.4 63.3 96% 30.06 0.0
22 03:15 Calm 7.00 Fair CLR 65.8 64.8 96% 30.07 0.0
22 02:55 Calm 10.00 Fair CLR 65.5 64.4 96% 30.07 0.0
22 02:35 Calm 10.00 Partly Cloudy SCT065 66.9 65.5 95% 30.08 0.0
22 02:15 Calm 10.00 Mostly Cloudy BKN065 67.3 65.7 95% 30.08 0.0
22 01:55 Calm 10.00 Overcast OVC065 67.3 65.7 77.7 67.1 95% 30.09 0.0
22 01:35 Calm 10.00 Mostly Cloudy BKN065 67.6 66.2 95% 30.09 0.0
22 01:15 Calm 10.00 Partly Cloudy SCT065 67.6 65.7 93% 30.1 0.0
22 00:55 Calm 10.00 Mostly Cloudy BKN065 67.5 66.2 96% 30.1 0.0
22 00:35 Calm 10.00 Fair CLR 67.8 65.5 92% 30.1 0.0
22 00:15 Calm 10.00 Fair CLR 68 66.9 96% 30.1 0.0
21 23:55 Calm 10.00 Fair CLR 68.9 67.1 94% 30.1 0.0
21 23:35 Calm 10.00 Partly Cloudy SCT050 SCT065 68.4 65.3 90% 30.1 0.0
21 23:15 Calm 10.00 Mostly Cloudy SCT050 BKN065 68.9 65.8 90% 30.1 0.0
21 22:55 Calm 10.00 Mostly Cloudy BKN065 69.1 64.9 87% 30.1 0.0
21 22:35 Calm 10.00 Mostly Cloudy BKN065 69.4 65.5 87% 30.11 0.0
21 22:15 Calm 10.00 Partly Cloudy SCT065 69.4 66.9 92% 30.11 0.0
21 21:55 Calm 10.00 Fair CLR 70.3 65.5 85% 30.1 0.0
21 21:35 Calm 10.00 Fair CLR 71.8 65.1 80% 30.09 0.0
21 21:15 Calm 10.00 Fair CLR 73.8 63.9 71% 30.08 0.0
21 20:55 N 3 10.00 Fair CLR 74.8 63.5 68% 30.08 0.0
21 20:35 Calm 10.00 Fair CLR 75.9 63.3 65% 78 30.08 0.0
21 20:15 Calm 10.00 Fair CLR 77 63.5 63% 79 30.08 0.0
21 19:55 Calm 10.00 Fair CLR 76.3 62.1 83.1 76.1 62% 78 30.08 0.0
21 19:35 N 5 10.00 Fair CLR 77.4 62.1 59% 79 30.08 0.0
21 19:15 Calm 10.00 Fair CLR 79.2 61.7 55% 80 30.09 0.0
21 18:55 NW 5 10.00 Partly Cloudy SCT050 SCT065 79.2 61.2 54% 80 30.08 0.0
21 18:35 N 3 10.00 Partly Cloudy SCT060 79.2 62.1 56% 81 30.08 0.0
21 18:15 N 6 10.00 Partly Cloudy SCT060 80.6 61 51% 81 30.09 0.0
21 17:55 N 5 10.00 Partly Cloudy SCT050 79.7 62.8 56% 81 30.09 0.0
21 17:35 N 6 10.00 Mostly Cloudy BKN055 BKN070 79.3 61.7 55% 81 30.09 0.0
21 17:15 NW 6 10.00 Mostly Cloudy SCT050 BKN065 80.1 62.2 55% 81 30.1 0.0
21 16:55 N 5 10.00 Partly Cloudy SCT050 SCT070 80.4 60.1 50% 81 30.1 0.0
21 16:35 NE 5 10.00 Mostly Cloudy BKN050 BKN070 80.4 60.8 51% 81 30.11 0.0
21 16:15 Calm 10.00 Mostly Cloudy BKN050 BKN070 80.4 59.9 50% 81 30.11 0.0
21 15:55 N 5 10.00 Mostly Cloudy BKN050 BKN070 82.4 59.4 46% 83 30.11 0.0
21 15:35 NW 3 10.00 Partly Cloudy SCT055 SCT070 82.8 60.8 48% 83 30.12 0.0
21 15:15 Calm 10.00 Fair CLR 81.1 57.7 45% 81 30.12 0.0
21 14:55 S 3 10.00 Partly Cloudy SCT049 SCT060 80.8 57.6 45% 81 30.13 0.0
21 14:35 Calm 10.00 Mostly Cloudy SCT047 BKN060 78.8 59.4 51% 80 30.13 0.0
21 14:15 Calm 10.00 Overcast BKN047 OVC060 79.2 59.7 51% 80 30.13 0.0
21 13:55 Calm 10.00 Partly Cloudy SCT047 SCT060 79 61 80.2 63 54% 80 30.13 0.0
21 13:35 Calm 10.00 Partly Cloudy SCT047 SCT050 77.2 59.9 55% 79 30.14 0.0
21 13:15 Calm 10.00 Partly Cloudy SCT055 79.9 60.8 52% 81 30.13 0.0
21 12:55 S 3 10.00 Partly Cloudy SCT050 77.5 60.4 56% 79 30.13 0.0
21 12:35 Calm 10.00 Partly Cloudy SCT055 78.1 59.5 53% 79 30.13 0.0
21 12:15 Calm 10.00 Fair CLR 77.4 60.4 56% 79 30.13 0.0
21 11:55 Calm 10.00 Fair CLR 78.1 59.5 53% 79 30.13 0.0
21 11:35 Calm 10.00 Fair CLR 77.5 59 53% 79 30.13 0.0
21 11:15 Calm 10.00 Fair CLR 76.6 61 59% 78 30.13 0.0
21 10:35 NW 3 10.00 Fair CLR 75.9 59.7 57% 78 30.13 0.0
21 10:15 Calm 10.00 Fair CLR 73.9 61.7 66% 30.13 0.0
21 09:55 Calm 10.00 Fair CLR 73 59.7 63% 30.14 0.0
21 09:35 Calm 10.00 Fair CLR 71.1 59.2 66% 30.15 0.0
21 09:15 Calm 10.00 Fair CLR 70.2 59.4 69% 30.15 0.0
21 08:55 Calm 10.00 Fair CLR 68.9 61 76% 30.15 0.0
21 08:35 Calm 10.00 Fair CLR 67.3 62.6 85% 30.14 0.0
21 08:15 Calm 10.00 Fair CLR 64.6 62.2 92% 30.14 0.0
21 07:55 Calm 10.00 Fair CLR 62.6 61.5 62.6 58.6 96% 30.14 0.0
21 07:35 Calm 10.00 Fair CLR 61.2 60.1 96% 30.13 0.0
21 07:15 Calm 10.00 Fair CLR 60.1 59 96% 30.13 0.0
21 06:55 Calm 10.00 Fair CLR 59.9 58.6 96% 30.13 0.0
21 06:35 Calm 10.00 Fair CLR 59.7 58.5 96% 30.13 0.0
21 06:15 Calm 7.00 Fair CLR 59.9 59 97% 30.13 0.0
21 05:55 Calm 7.00 Fair CLR 59 57.9 96% 30.13 0.0
21 05:35 Calm 10.00 Fair CLR 59.7 58.5 96% 30.12 0.0
21 05:15 Calm 10.00 Fair CLR 59.4 58.3 96% 30.13 0.0
21 04:55 Calm 10.00 Fair CLR 59 58.1 97% 30.13 0.0
21 04:35 Calm 10.00 Fair CLR 59.5 58.5 96% 30.12 0.0
21 04:15 Calm 10.00 Fair CLR 59.7 58.6 96% 30.12 0.0
21 03:55 Calm 10.00 Fair CLR 59.9 58.8 96% 30.13 0.0
21 03:35 Calm 10.00 Fair CLR 59.2 58.3 97% 30.12 0.0
21 03:15 Calm 10.00 Fair CLR 60.6 59.4 96% 30.12 0.0
21 02:55 Calm 10.00 Fair CLR 60.3 59.2 96% 30.13 0.0
21 02:35 Calm 10.00 Fair CLR 61.2 60.1 96% 30.13 0.0
21 02:15 Calm 10.00 Fair CLR 61.2 60.1 96% 30.13 0.0
21 01:55 Calm 10.00 Fair CLR 61.7 60.8 77.7 61.5 97% 30.13 0.0
21 01:35 Calm 10.00 Fair CLR 61.7 60.8 97% 30.13 0.0
21 01:15 Calm 10.00 Fair CLR 62.8 61.7 96% 30.13 0.0
21 00:55 Calm 10.00 Fair CLR 63.5 62.2 96% 30.13 0.0
21 00:35 Calm 10.00 Fair CLR 63.9 62.6 96% 30.13 0.0
21 00:15 Calm 10.00 Fair CLR 65.5 62.1 89% 30.13 0.0
20 23:55 Calm 10.00 Fair CLR 67.1 63.7 89% 30.13 0.0
20 23:35 Calm 10.00 Partly Cloudy SCT050 66.2 63.9 92% 30.13 0.0
20 23:15 Calm 10.00 Mostly Cloudy BKN050 67.3 62.6 85% 30.13 0.0
20 22:55 Calm 10.00 Partly Cloudy SCT050 66.7 61.9 84% 30.13 0.0
20 22:35 Calm 10.00 Fair CLR 65.5 62.8 91% 30.13 0.0
20 22:15 Calm 10.00 Fair CLR 66.4 63.7 91% 30.12 0.0
20 21:55 Calm 10.00 Fair CLR 67.5 64.4 90% 30.12 0.0
20 21:35 Calm 5.00 Fair with Haze CLR 68.2 62.8 83% 30.11 0.0
20 21:15 Calm 10.00 Fair CLR 69.4 64.9 86% 30.11 0.0
20 20:55 Calm 10.00 Fair CLR 70 64.4 83% 30.11 0.0
20 20:35 W 3 10.00 Fair CLR 74.5 61 63% 30.11 0.0
20 20:15 W 3 10.00 Partly Cloudy SCT045 76.3 59.7 57% 78 30.1 0.0
20 19:55 W 5 10.00 Mostly Cloudy BKN045 77.9 59 80.6 76.3 52% 79 30.1 0.0
Date Time (edt) Wind (mph) Vis. (mi.) Weather Sky Cond. Air Dwpt Max. Min. Relative Humidity Wind Chill (°F) Heat Index (°F) altimeter (in) sea level (mb) 1 hr 3 hr 6 hr
6 hour
Temperature (ºF) Pressure Precipitation (in)